CZ-6A DEB, 54451

Orbit data source: Space-Track

CZ-6A DEB, 54451 is space debris in SSO originally from a launch on Fri, 11 Nov 2022 UTC launched from the Taiyaun Space Center, China (TSC). Debris objects in space refer to the collection of defunct objects orbiting the Earth. Examples of debris include non-operational satellites, rocket bodies, and fragments generated from explosions, collisions, or faulty payload assembly.

Loading next visibility...
Identifier
54451, 2022-151GB
Orbit
SSO
Country
Flag of CNCN / PRC
Related business
Manufacturer
SAST
Mission
Spacecraft
Bus & Motor
Unknown
Mass
Unknown
Launch date (UTC)
2022-11-11 (3 years ago)
Launch vehicle
Unknown
Launch site
Taiyaun Space Center, China (TSC)
Object type
Payload
Rocket body
Debris
Shape & HBR
Unknown shape, 0.1 m
Radar Cross Section
Small (<0.1 m²)

Expand to show TLE details & history
Last TLE update: 19 hours ago

TLE from 19 hours ago
0 CZ-6A DEB
1 54451U 22151GB  26130.12310254  .00002263  00000-0  80658-3 0  9993
2 54451  98.9102 190.0141 0071863 237.4174 122.0057 14.33823927181738
Epoch: 2026-05-10T02:57Z
TLE epoch observation values (Epoch: 2026-05-10T02:57:16.059Z)
Latitude
-0.00002°
Longitude
-82.23351°
Altitude
809.434 km
Speed
7.434 km/s
True Right ascension
12h 40m 03s
True Declination
0° 00' 00"
Sunlit
Object was in full shadow at epoch
Visualization orbit readout
Latitude
Unknown
Longitude
Unknown
Altitude
Unknown
Speed
Unknown
Apparent Right ascension
Unknown
Apparent Declination
Unknown
Sunlit
N/A
Visualization observer readout
Local Sidereal Time
06:27:51
Azimuth
Unknown
Elevation
Unknown
Doppler factor
Unknown
Orbital elements
Apogee altitude
827.54 km
Perigee altitude
724.714 km
Semi-major axis
7,154.264 km
Eccentricity
0.00719
Inclination
98.9102°
RAAN
190.0141°
Arg. of periapsis
237.4174°
True anomaly
122.70069°
Mean anomaly
122.0057°
Eccentric anomaly
122.35353°
Mean motion
3.58671 °/min
Orbital period
100.37 mins
BSTAR
0.00080658
Loading maneuver chart data...
Computing Atmospheric mass density...
Loading historical data...
Loading historical data...
Loading historical data...
Loading historical data...
Loading historical data...
Loading historical data...
Loading historical data...

Documentation

Showing up to 5 results
|